Location: Austin
(30.3000°N, 97.7500°W)
Time: 01:48:00
(UTC-05:00)

PSLV R/B - Pass Details

Date: 15 May 2024
Orbit: 466 x 521 km, 97.7° (Epoch: 29 May)

Event Time Altitude Azimuth Distance (km) Brightness Sun altitude
Exits shadow 21:59:05 27° 195° (SSW) 1,035 5.0 -19.6°
Maximum altitude 22:00:54 52° 260° (W) 655 4.4 -19.9°
Drops below altitude 10° 22:04:36 10° 337° (NNW) 1,752 7.3 -20.5°
Sets 22:06:45 0° 342° (NNW) 2,637 8.2 -20.9°
